QPF
0.00 0.00 0.00 0.00 0.00 0.00 0.00 0.00 0.00 0.00 0.00 0.00 0.00 0.00 0.00 0.00 0.00 0.00 0.00 0.00 0.00 0.00 0.00 0.00 0.00 0.00 0.00 0.00 0.00 0.00 0.00 0.00 0.00 0.00 0.00 0.00 0.00 0.00 0.00 0.00 0.01 0.00 0.00 0.02 0.18
0.00 0.00 0.00 0.00 0.00 0.00 0.00 0.00 0.00 0.00 0.00 0.00 0.00 0.00 0.00 0.00 0.00 0.00 0.00 0.00 0.00 0.00 0.00 0.00 0.00 0.00 0.00 0.00 0.00 0.00 0.00 0.00 0.00 0.00 0.00 0.00 0.00 0.00 0.00 0.00 0.00 0.00 0.00 0.00 0.02
0.00 0.00 0.00 0.00 0.00 0.00 0.00 0.00 0.00 0.00 0.00 0.00 0.00 0.00 0.00 0.00 0.00 0.00 0.00 0.00 0.00 0.00 0.00 0.00 0.00 0.00 0.00 0.00 0.00 0.00 0.00 0.00 0.00 0.00 0.00 0.00 0.00 0.00 0.00 0.00 0.00 0.00 0.00 0.00 0.00
0.00 0.00 0.00 0.00 0.00 0.00 0.00 0.00 0.00 0.00 0.00 0.00 0.00 0.00 0.00 0.00 0.00 0.00 0.00 0.00 0.00 0.00 0.00 0.00 0.00 0.00 0.00 0.00 0.00 0.00 0.00 0.00 0.00 0.00 0.00 0.00 0.00 0.00 0.00 0.00 0.00 0.00 0.00 0.00 0.00
0.00 0.00 0.00 0.00 0.00 0.00 0.00 0.00 0.00 0.00 0.00 0.00 0.00 0.00 0.00 0.00 0.00 0.00 0.00 0.00 0.00 0.00 0.00 0.00 0.00 0.00 0.00 0.00 0.00 0.00 0.00 0.00 0.00 0.00 0.00 0.00 0.00 0.00 0.00 0.00 0.00 0.00 0.00 0.00 0.00
0.00 0.00 0.00 0.00 0.00 0.00 0.00 0.00 0.00 0.00 0.00 0.00 0.00 0.00 0.00 0.00 0.00 0.00 0.00 0.00 0.00 0.00 0.00 0.00 0.00 0.00 0.00 0.00 0.00 0.00 0.00 0.00 0.00 0.00 0.00 0.00 0.00 0.00 0.00 0.00 0.00 0.00 0.00 0.00 0.00
0.00 0.00 0.00 0.00 0.00 0.00 0.00 0.00 0.00 0.00 0.00 0.00 0.00 0.00 0.00 0.00 0.00 0.00 0.00 0.00 0.00 0.00 0.00 0.00 0.00 0.00 0.00 0.00 0.00 0.00 0.00 0.00 0.00 0.00 0.00 0.00 0.00 0.00 0.00 0.00 0.00 0.00 0.00 0.00 0.00
0.00 0.00 0.00 0.00 0.00 0.00 0.00 0.00 0.00 0.00 0.00 0.00 0.00 0.00 0.00 0.00 0.00 0.00 0.00 0.00 0.00 0.00 0.00 0.00 0.00 0.00 0.00 0.00 0.00 0.00 0.00 0.00 0.00 0.00 0.00 0.00 0.00 0.00 0.00 0.00 0.00 0.00 0.00 0.00 0.00
0.00 0.00 0.00 0.00 0.00 0.00 0.00 0.00 0.00 0.00 0.00 0.00 0.00 0.00 0.00 0.00 0.00 0.00 0.00 0.00 0.00 0.00 0.00 0.00 0.00 0.00 0.00 0.00 0.00 0.00 0.00 0.00 0.00 0.00 0.00 0.00 0.00 0.00 0.00 0.00 0.00 0.00 0.00 0.00 0.00
0.00 0.00 0.00 0.00 0.00 0.00 0.00 0.00 0.00 0.00 0.00 0.00 0.00 0.00 0.00 0.00 0.00 0.00 0.00 0.00 0.00 0.00 0.00 0.00 0.00 0.00 0.00 0.00 0.00 0.00 0.00 0.00 0.00 0.00 0.00 0.00 0.00 0.00 0.00 0.00 0.00 0.00 0.00 0.00 0.00
0.00 0.00 0.00 0.00 0.00 0.00 0.00 0.00 0.00 0.00 0.00 0.00 0.00 0.00 0.00 0.00 0.00 0.00 0.00 0.00 0.00 0.00 0.00 0.00 0.00 0.00 0.00 0.00 0.00 0.00 0.00 0.00 0.00 0.00 0.00 0.00 0.00 0.00 0.00 0.00 0.00 0.00 0.00 0.00 0.00
0.00 0.00 0.00 0.00 0.00 0.00 0.00 0.00 0.00 0.00 0.00 0.00 0.00 0.00 0.00 0.00 0.00 0.00 0.00 0.00 0.00 0.00 0.00 0.00 0.00 0.00 0.00 0.00 0.00 0.00 0.00 0.00 0.00 0.00 0.00 0.00 0.00 0.00 0.00 0.00 0.00 0.00 0.00 0.00 0.00
0.00 0.00 0.00 0.00 0.00 0.00 0.00 0.00 0.00 0.00 0.00 0.00 0.00 0.00 0.00 0.00 0.00 0.00 0.00 0.00 0.00 0.00 0.00 0.00 0.00 0.00 0.00 0.00 0.00 0.00 0.00 0.00 0.00 0.00 0.00 0.00 0.00 0.00 0.00 0.00 0.00 0.00 0.00 0.00 0.00
0.00 0.00 0.00 0.00 0.00 0.00 0.00 0.00 0.00 0.00 0.00 0.00 0.00 0.00 0.00 0.00 0.00 0.00 0.00 0.00 0.00 0.00 0.00 0.00 0.00 0.00 0.00 0.00 0.00 0.00 0.00 0.00 0.00 0.00 0.00 0.00 0.00 0.00 0.00 0.00 0.00 0.00 0.00 0.00 0.00
0.00 0.00 0.00 0.00 0.00 0.00 0.00 0.00 0.00 0.00 0.00 0.00 0.00 0.00 0.00 0.00 0.00 0.00 0.00 0.00 0.00 0.00 0.00 0.00 0.00 0.00 0.00 0.00 0.00 0.00 0.00 0.00 0.00 0.00 0.00 0.00 0.00 0.00 0.00 0.00 0.00 0.00 0.00 0.00 0.00
0.00 0.00 0.00 0.00 0.00 0.00 0.00 0.00 0.00 0.00 0.00 0.00 0.00 0.00 0.00 0.00 0.00 0.00 0.00 0.00 0.00 0.00 0.00 0.00 0.00 0.00 0.00 0.00 0.00 0.00 0.00 0.00 0.00 0.00 0.00 0.00 0.00 0.00 0.00 0.00 0.01 0.01 0.00 0.00 0.00
0.00 0.00 0.00 0.00 0.00 0.00 0.00 0.00 0.00 0.00 0.00 0.00 0.00 0.00 0.00 0.00 0.00 0.00 0.00 0.00 0.00 0.00 0.00 0.00 0.00 0.00 0.00 0.00 0.00 0.00 0.00 0.00 0.00 0.00 0.00 0.00 0.00 0.00 0.00 0.00 0.01 0.01 0.00 0.00 0.00
0.00 0.00 0.00 0.00 0.00 0.00 0.00 0.00 0.00 0.00 0.00 0.00 0.00 0.00 0.00 0.00 0.00 0.00 0.00 0.00 0.00 0.00 0.00 0.00 0.00 0.00 0.00 0.00 0.00 0.00 0.00 0.00 0.00 0.00 0.00 0.00 0.00 0.00 0.00 0.00 0.00 0.02 0.01 0.00 0.03
0.00 0.00 0.00 0.00 0.00 0.00 0.00 0.00 0.00 0.00 0.00 0.00 0.00 0.00 0.00 0.00 0.00 0.00 0.00 0.00 0.00 0.00 0.00 0.00 0.00 0.00 0.00 0.00 0.00 0.00 0.00 0.00 0.00 0.00 0.00 0.00 0.00 0.00 0.00 0.00 0.00 0.01 0.03 0.01 0.02
0.00 0.00 0.00 0.00 0.00 0.00 0.00 0.00 0.00 0.00 0.00 0.00 0.00 0.00 0.00 0.00 0.00 0.00 0.00 0.00 0.00 0.00 0.00 0.00 0.00 0.00 0.00 0.00 0.00 0.00 0.00 0.00 0.00 0.00 0.00 0.00 0.00 0.00 0.00 0.00 0.00 0.00 0.01 0.04 0.04
0.00 0.00 0.00 0.00 0.00 0.00 0.00 0.00 0.00 0.00 0.00 0.00 0.00 0.00 0.00 0.00 0.00 0.00 0.00 0.00 0.00 0.00 0.00 0.00 0.00 0.00 0.00 0.00 0.00 0.00 0.00 0.00 0.00 0.00 0.00 0.00 0.00 0.00 0.00 0.00 0.00 0.00 0.00 0.02 0.07
0.00 0.00 0.00 0.00 0.00 0.00 0.00 0.00 0.00 0.00 0.00 0.00 0.00 0.00 0.00 0.00 0.00 0.00 0.00 0.00 0.00 0.00 0.00 0.00 0.00 0.00 0.00 0.00 0.00 0.00 0.00 0.00 0.00 0.00 0.00 0.00 0.00 0.00 0.00 0.00 0.00 0.00 0.00 0.00 0.04
0.00 0.00 0.00 0.00 0.00 0.00 0.00 0.00 0.00 0.00 0.00 0.00 0.00 0.00 0.00 0.00 0.00 0.00 0.00 0.00 0.00 0.00 0.00 0.00 0.00 0.00 0.00 0.00 0.00 0.00 0.00 0.00 0.00 0.00 0.00 0.00 0.00 0.00 0.00 0.00 0.00 0.00 0.00 0.00 0.00
0.00 0.00 0.00 0.00 0.00 0.00 0.00 0.00 0.00 0.00 0.00 0.00 0.00 0.00 0.00 0.00 0.00 0.00 0.00 0.00 0.00 0.00 0.00 0.00 0.00 0.00 0.00 0.00 0.00 0.00 0.00 0.00 0.00 0.00 0.00 0.00 0.00 0.00 0.00 0.00 0.00 0.00 0.00 0.00 0.00
0.00 0.00 0.00 0.00 0.00 0.00 0.00 0.00 0.00 0.00 0.00 0.00 0.00 0.00 0.00 0.00 0.00 0.00 0.00 0.00 0.00 0.00 0.00 0.00 0.00 0.00 0.00 0.00 0.00 0.00 0.00 0.00 0.00 0.00 0.00 0.00 0.00 0.00 0.00 0.00 0.00 0.00 0.00 0.00 0.00
0.00 0.00 0.00 0.00 0.00 0.00 0.00 0.00 0.00 0.00 0.00 0.00 0.00 0.00 0.00 0.00 0.00 0.00 0.00 0.00 0.00 0.00 0.00 0.00 0.00 0.00 0.00 0.00 0.00 0.00 0.00 0.00 0.00 0.00 0.00 0.00 0.00 0.00 0.00 0.00 0.00 0.00 0.00 0.00 0.00
0.00 0.00 0.00 0.00 0.00 0.00 0.00 0.00 0.00 0.00 0.00 0.00 0.00 0.00 0.00 0.00 0.00 0.00 0.00 0.00 0.00 0.00 0.00 0.00 0.00 0.00 0.00 0.00 0.00 0.00 0.00 0.00 0.00 0.00 0.00 0.00 0.00 0.00 0.00 0.00 0.00 0.00 0.00 0.00 0.00
MSLP
1017.17 1016.87 1016.47 1016.32 1016.10 1015.76 1015.64 1015.13 1015.02 1014.72 1014.41 1014.02 1013.86 1013.60 1013.09 1012.70 1012.04 1011.71 1011.37 1011.83 1011.54 1011.25 1010.98 1010.35 1009.84 1009.85 1009.91 1009.82 1010.15 1009.87 1009.84 1009.00 1008.26 1007.52 1006.82 1005.94 1005.65 1005.18 1005.08 1005.22 1005.76 1006.06 1006.36 1007.64 1008.26
1017.31 1016.79 1016.46 1016.31 1016.10 1015.85 1015.30 1015.05 1014.75 1014.56 1014.29 1013.94 1013.77 1013.50 1013.30 1012.92 1012.10 1011.17 1011.66 1011.49 1011.43 1011.18 1010.34 1009.98 1009.76 1009.67 1009.58 1009.70 1010.00 1010.05 1009.69 1008.87 1008.25 1007.96 1007.72 1007.22 1006.84 1006.41 1006.31 1006.05 1005.98 1005.90 1006.07 1006.88 1007.32
1017.05 1016.83 1016.64 1016.51 1016.02 1015.68 1015.22 1014.85 1014.62 1014.37 1014.12 1013.79 1013.57 1013.55 1013.35 1013.16 1012.03 1011.08 1011.38 1011.36 1011.29 1011.06 1010.26 1009.78 1009.54 1009.66 1009.50 1009.66 1009.62 1009.64 1009.61 1009.09 1008.73 1008.50 1008.46 1008.24 1007.95 1007.51 1007.15 1006.91 1006.78 1006.66 1006.73 1006.98 1006.58
1017.08 1016.89 1016.71 1016.38 1016.00 1015.53 1015.03 1014.68 1014.45 1014.12 1013.91 1013.59 1013.48 1013.45 1013.23 1012.89 1011.43 1011.04 1011.21 1011.17 1011.03 1010.71 1009.94 1009.58 1009.25 1009.27 1009.45 1009.37 1009.25 1009.65 1009.36 1008.93 1008.93 1008.80 1008.81 1008.76 1008.57 1008.19 1007.90 1007.64 1007.18 1006.94 1006.78 1006.92 1007.00
1017.27 1016.96 1016.54 1016.14 1015.89 1015.33 1014.80 1014.50 1014.08 1013.85 1013.67 1013.48 1013.38 1013.30 1013.07 1011.89 1010.49 1010.83 1011.01 1010.87 1010.60 1010.29 1009.85 1009.89 1009.49 1009.65 1009.51 1009.27 1009.31 1009.10 1008.99 1008.81 1008.73 1008.67 1008.67 1008.63 1008.50 1008.33 1007.85 1007.44 1007.16 1007.06 1006.84 1006.71 1006.97
1017.30 1016.88 1016.46 1016.11 1015.72 1015.11 1014.77 1014.29 1013.77 1013.45 1013.23 1013.18 1013.26 1013.39 1012.84 1010.87 1009.89 1010.10 1010.49 1010.46 1010.38 1010.32 1010.03 1009.96 1010.02 1010.06 1009.90 1009.50 1009.31 1009.09 1009.08 1008.67 1008.37 1008.14 1008.23 1008.35 1008.31 1008.12 1007.51 1007.11 1006.97 1007.15 1007.09 1006.89 1006.82
1017.22 1016.89 1016.53 1016.03 1015.45 1014.99 1014.53 1013.98 1013.36 1012.96 1012.93 1012.96 1013.11 1013.00 1011.37 1010.29 1009.70 1009.88 1010.24 1010.17 1010.47 1010.41 1010.34 1010.09 1010.30 1010.29 1009.87 1009.37 1009.08 1009.06 1008.94 1008.10 1007.98 1007.90 1008.29 1008.59 1008.38 1007.54 1006.88 1006.94 1006.96 1007.21 1006.98 1006.66 1006.62
1017.17 1016.84 1016.38 1015.88 1015.31 1014.90 1014.35 1013.75 1013.26 1012.94 1012.80 1012.77 1012.95 1012.46 1010.38 1009.62 1009.56 1009.98 1009.77 1009.71 1010.01 1010.18 1010.35 1010.36 1010.41 1010.31 1009.96 1009.32 1009.03 1008.76 1008.40 1007.93 1007.52 1007.76 1008.20 1008.58 1008.40 1007.66 1007.45 1007.46 1007.63 1007.49 1007.31 1006.87 1006.50
1017.00 1016.67 1016.22 1015.71 1015.26 1014.74 1014.05 1013.60 1013.30 1013.03 1012.77 1012.68 1012.70 1011.71 1009.82 1009.97 1009.70 1009.61 1009.78 1009.78 1009.78 1009.93 1010.11 1010.19 1010.36 1010.03 1009.42 1009.39 1008.45 1008.67 1008.60 1008.23 1007.67 1007.49 1008.12 1008.46 1008.44 1008.17 1008.20 1008.49 1008.67 1008.53 1008.12 1007.56 1006.78
1016.88 1016.47 1016.08 1015.64 1015.11 1014.50 1013.89 1013.58 1013.06 1013.06 1012.63 1011.97 1011.27 1011.05 1009.59 1009.29 1009.36 1009.57 1009.49 1009.83 1009.76 1009.57 1009.65 1010.03 1009.89 1009.56 1009.34 1009.43 1009.65 1009.43 1009.13 1008.53 1007.83 1007.94 1008.43 1008.61 1008.84 1008.94 1009.16 1009.39 1009.57 1009.51 1009.14 1008.47 1007.45
1016.61 1016.47 1015.94 1015.54 1014.99 1014.38 1013.63 1013.23 1013.33 1012.79 1011.37 1010.52 1010.03 1009.51 1009.21 1009.31 1009.44 1009.37 1009.22 1009.18 1009.25 1009.23 1009.15 1009.13 1009.37 1009.18 1009.46 1009.82 1009.81 1009.49 1009.06 1008.43 1008.06 1008.22 1008.77 1008.53 1008.90 1009.56 1010.00 1010.34 1010.66 1010.61 1010.44 1009.53 1008.29
1016.57 1016.17 1015.81 1015.34 1014.87 1014.28 1014.22 1012.63 1012.63 1012.72 1011.15 1010.15 1009.88 1009.59 1009.47 1009.59 1009.18 1008.74 1009.12 1009.12 1009.05 1008.96 1008.76 1008.88 1009.19 1009.33 1009.54 1009.58 1009.39 1009.22 1008.87 1008.68 1008.63 1008.42 1008.55 1008.75 1009.05 1009.96 1010.74 1011.49 1011.86 1011.69 1011.23 1010.58 1009.47
1016.26 1016.01 1015.61 1015.12 1014.57 1013.86 1012.93 1012.59 1012.52 1012.21 1011.21 1009.80 1009.31 1008.99 1009.08 1009.58 1009.03 1008.75 1009.31 1009.35 1009.03 1009.01 1008.77 1009.14 1009.13 1009.27 1009.42 1009.34 1009.33 1009.42 1009.57 1009.60 1009.46 1008.80 1008.49 1009.02 1009.54 1010.30 1011.35 1012.03 1012.22 1012.10 1012.11 1011.52 1010.82
1016.10 1015.79 1015.51 1014.86 1014.50 1012.70 1012.39 1012.60 1012.50 1012.26 1010.97 1009.45 1009.04 1008.70 1009.13 1009.35 1009.26 1009.16 1009.59 1009.85 1009.06 1009.03 1009.26 1009.15 1009.17 1009.41 1009.50 1009.28 1009.80 1009.65 1009.60 1009.70 1009.53 1009.34 1009.12 1009.23 1010.23 1011.30 1011.88 1012.28 1012.40 1012.78 1012.64 1012.24 1011.44
1016.24 1015.83 1015.29 1015.34 1014.54 1012.68 1012.79 1012.60 1012.42 1012.11 1010.56 1008.77 1008.52 1008.90 1008.75 1009.20 1009.19 1009.37 1009.76 1009.65 1009.43 1009.26 1009.81 1009.37 1009.50 1009.72 1009.70 1009.76 1009.99 1009.80 1009.67 1009.52 1009.87 1010.04 1009.82 1009.94 1010.57 1011.30 1011.61 1012.59 1012.94 1013.01 1012.92 1012.76 1012.32
1016.03 1015.90 1015.40 1013.73 1013.94 1012.70 1012.68 1012.69 1012.52 1011.81 1008.98 1008.20 1008.26 1008.54 1008.70 1008.90 1008.86 1009.19 1009.42 1009.70 1009.50 1009.66 1009.66 1009.61 1009.84 1010.02 1010.04 1009.87 1009.62 1009.72 1009.25 1008.80 1009.95 1010.43 1010.72 1010.77 1011.50 1011.78 1012.61 1013.31 1013.36 1013.31 1013.34 1013.12 1012.71
1015.66 1015.78 1015.80 1014.21 1012.99 1012.78 1012.71 1012.50 1011.86 1009.74 1007.73 1007.88 1007.78 1008.30 1008.37 1008.49 1008.79 1009.17 1009.16 1009.40 1009.74 1009.90 1009.62 1009.22 1009.61 1009.92 1010.22 1009.87 1009.69 1009.91 1009.98 1010.54 1011.02 1011.03 1011.14 1011.10 1011.54 1012.48 1012.64 1013.08 1013.80 1013.82 1013.78 1013.57 1013.10
1015.48 1015.43 1014.61 1013.56 1012.43 1012.83 1012.73 1012.04 1010.01 1006.85 1006.46 1006.92 1007.45 1008.18 1008.32 1008.56 1008.91 1009.14 1009.22 1009.43 1010.01 1010.27 1010.12 1009.76 1009.95 1010.06 1010.28 1010.42 1010.56 1010.55 1010.96 1012.32 1013.04 1012.83 1012.32 1011.58 1011.72 1012.05 1012.16 1012.85 1013.57 1014.06 1014.16 1013.91 1013.34
1015.17 1014.75 1013.94 1012.35 1012.54 1012.63 1012.42 1010.77 1007.51 1006.18 1005.50 1006.66 1007.62 1007.87 1008.19 1008.77 1009.24 1009.28 1009.27 1009.58 1010.42 1010.76 1011.03 1010.46 1010.22 1010.43 1010.57 1010.65 1010.70 1010.67 1011.39 1012.64 1013.25 1013.18 1012.99 1011.56 1011.83 1011.92 1011.86 1012.56 1013.31 1014.22 1014.38 1014.34 1014.26
1014.53 1013.32 1011.64 1011.32 1011.91 1012.13 1011.54 1009.03 1006.88 1005.63 1005.73 1006.13 1006.52 1007.00 1007.16 1008.20 1009.08 1009.13 1009.43 1010.10 1010.74 1011.26 1011.34 1011.26 1011.01 1010.22 1010.49 1010.92 1010.91 1010.86 1011.48 1012.33 1012.92 1013.36 1012.52 1011.34 1011.56 1012.09 1012.24 1012.87 1013.57 1014.42 1015.01 1015.17 1015.12
1014.27 1012.52 1010.15 1010.68 1011.88 1011.23 1009.48 1007.89 1006.53 1005.93 1005.89 1006.06 1006.23 1006.48 1006.85 1007.51 1008.39 1008.81 1009.42 1010.67 1010.94 1011.50 1011.70 1011.64 1011.51 1010.85 1010.56 1010.61 1010.58 1010.98 1011.00 1011.44 1012.09 1012.65 1012.75 1012.09 1012.27 1011.96 1012.62 1013.20 1014.08 1014.88 1015.56 1016.02 1015.84
1012.90 1011.59 1010.58 1010.41 1011.08 1009.20 1007.83 1007.04 1006.24 1005.83 1006.20 1006.34 1006.57 1006.29 1006.81 1007.47 1008.38 1008.92 1009.50 1010.42 1011.17 1011.60 1011.78 1012.22 1012.17 1011.22 1010.60 1010.57 1010.81 1010.97 1011.15 1011.38 1011.98 1012.50 1012.47 1011.81 1012.16 1011.97 1012.55 1013.27 1014.07 1015.16 1015.95 1016.11 1016.30
1011.17 1010.61 1010.39 1010.24 1008.69 1007.66 1006.97 1006.25 1005.83 1005.85 1006.15 1006.47 1006.68 1006.72 1007.02 1007.65 1008.67 1009.23 1010.10 1011.42 1011.76 1012.08 1012.31 1012.45 1012.25 1011.55 1011.23 1011.28 1011.04 1010.87 1010.99 1011.55 1011.79 1012.06 1012.06 1011.64 1011.78 1011.71 1012.26 1013.31 1014.01 1014.99 1015.92 1016.11 1016.24
1009.87 1009.70 1009.73 1009.91 1008.04 1006.96 1006.46 1005.37 1005.28 1005.58 1005.87 1006.12 1006.37 1006.87 1007.57 1008.01 1008.66 1009.55 1010.64 1011.79 1012.22 1012.42 1012.86 1012.91 1012.52 1011.86 1011.15 1010.57 1010.38 1010.46 1010.54 1011.04 1011.63 1011.81 1011.27 1011.26 1011.19 1011.38 1011.99 1013.05 1014.00 1014.85 1015.55 1015.93 1016.09
1009.85 1007.21 1006.48 1007.26 1007.33 1006.89 1006.08 1004.93 1004.94 1005.34 1005.68 1005.98 1006.46 1006.69 1007.17 1007.98 1008.88 1009.72 1010.61 1011.96 1012.55 1012.84 1013.04 1013.03 1012.59 1011.78 1011.04 1010.43 1010.32 1010.06 1010.26 1010.59 1011.02 1011.00 1011.29 1010.65 1010.89 1010.86 1011.40 1012.40 1013.56 1014.35 1015.06 1015.48 1015.83
1008.74 1007.54 1006.09 1005.78 1005.88 1006.28 1005.53 1004.00 1003.70 1004.40 1005.07 1005.29 1005.70 1006.48 1006.96 1007.39 1008.02 1008.98 1009.92 1011.00 1011.54 1012.97 1013.00 1012.89 1012.71 1012.10 1011.16 1010.14 1009.80 1009.78 1009.69 1009.89 1010.30 1010.38 1010.35 1010.49 1010.45 1010.27 1011.11 1012.14 1013.10 1013.94 1014.58 1015.20 1015.57
1008.71 1007.58 1006.36 1005.10 1004.99 1004.80 1003.55 1003.51 1003.25 1003.68 1004.63 1004.67 1005.16 1005.97 1006.59 1007.09 1007.81 1008.28 1009.45 1010.06 1010.77 1011.85 1012.56 1012.60 1012.71 1012.30 1011.22 1010.16 1009.77 1009.39 1008.55 1008.75 1009.23 1009.48 1009.69 1010.00 1010.28 1010.52 1011.19 1011.93 1012.60 1013.36 1014.05 1014.84 1015.49
Thickness
5693 5695 5698 5699 5700 5702 5704 5709 5710 5713 5716 5719 5720 5721 5725 5727 5732 5733 5726 5726 5728 5730 5731 5732 5731 5725 5720 5710 5705 5706 5675 5672 5682 5687 5691 5713 5707 5723 5729 5720 5722 5728 5724 5714 5706
5689 5694 5697 5697 5697 5700 5705 5708 5711 5712 5715 5717 5718 5719 5721 5723 5728 5729 5728 5727 5727 5728 5730 5723 5716 5717 5706 5702 5696 5684 5670 5678 5694 5691 5683 5692 5692 5698 5696 5701 5706 5715 5724 5715 5720
5691 5692 5693 5694 5697 5700 5705 5708 5711 5712 5714 5716 5717 5717 5718 5718 5720 5724 5727 5726 5725 5725 5728 5726 5721 5710 5698 5698 5692 5686 5668 5683 5684 5686 5682 5675 5674 5686 5681 5678 5692 5694 5704 5709 5715
5688 5689 5690 5693 5696 5701 5705 5708 5711 5713 5714 5716 5716 5716 5716 5718 5704 5726 5726 5725 5724 5724 5725 5718 5714 5701 5692 5685 5694 5671 5681 5683 5679 5680 5673 5663 5669 5667 5672 5676 5692 5697 5702 5703 5704
5685 5687 5690 5693 5696 5701 5705 5708 5711 5713 5714 5715 5715 5715 5717 5715 5720 5728 5725 5724 5725 5722 5716 5707 5703 5695 5685 5688 5684 5675 5677 5680 5678 5676 5672 5670 5662 5663 5669 5682 5690 5693 5697 5696 5695
5683 5687 5690 5692 5696 5701 5704 5708 5712 5715 5716 5716 5715 5712 5713 5708 5734 5731 5726 5725 5721 5716 5711 5709 5698 5697 5685 5682 5676 5678 5673 5673 5676 5676 5673 5664 5661 5664 5671 5682 5682 5682 5684 5690 5692
5681 5685 5688 5693 5697 5701 5704 5708 5714 5717 5717 5716 5714 5714 5717 5715 5734 5731 5727 5723 5719 5714 5703 5708 5702 5691 5689 5679 5686 5676 5662 5673 5675 5674 5665 5663 5650 5659 5677 5679 5675 5674 5679 5685 5687
5679 5683 5687 5692 5697 5700 5704 5709 5712 5715 5716 5716 5713 5715 5714 5735 5734 5727 5729 5723 5721 5717 5709 5707 5702 5690 5683 5688 5681 5671 5669 5654 5673 5671 5666 5659 5635 5661 5669 5666 5660 5664 5668 5673 5681
5679 5681 5686 5691 5695 5700 5705 5709 5710 5712 5714 5714 5713 5714 5712 5731 5722 5728 5725 5713 5715 5713 5709 5706 5696 5684 5686 5668 5666 5667 5644 5651 5659 5673 5661 5652 5638 5654 5658 5650 5645 5647 5653 5660 5669
5678 5682 5686 5689 5694 5700 5705 5707 5710 5710 5714 5717 5720 5706 5721 5716 5724 5723 5726 5717 5708 5707 5699 5691 5687 5677 5675 5661 5634 5641 5642 5651 5652 5660 5653 5644 5637 5642 5644 5639 5634 5633 5636 5643 5654
5677 5679 5684 5688 5693 5699 5704 5709 5705 5705 5716 5714 5715 5716 5719 5725 5726 5717 5722 5715 5710 5702 5685 5693 5672 5665 5666 5665 5661 5657 5652 5652 5656 5660 5644 5645 5638 5633 5630 5621 5615 5615 5615 5624 5637
5672 5678 5682 5686 5692 5697 5698 5707 5703 5702 5705 5719 5718 5718 5721 5719 5706 5716 5721 5701 5697 5684 5694 5683 5666 5676 5675 5670 5665 5660 5653 5649 5651 5658 5648 5640 5633 5623 5617 5607 5602 5601 5603 5608 5619
5668 5673 5680 5685 5690 5698 5704 5703 5707 5708 5700 5711 5719 5717 5717 5714 5706 5709 5708 5699 5691 5683 5686 5669 5676 5680 5673 5667 5658 5653 5643 5636 5633 5646 5651 5637 5618 5614 5608 5598 5596 5598 5593 5596 5601
5661 5668 5673 5682 5687 5701 5700 5702 5703 5705 5691 5701 5705 5714 5714 5712 5698 5713 5707 5693 5691 5681 5679 5677 5684 5673 5667 5665 5656 5639 5652 5646 5642 5636 5620 5640 5596 5600 5600 5592 5587 5581 5581 5584 5589
5654 5659 5667 5670 5679 5692 5693 5697 5700 5697 5666 5707 5708 5723 5717 5702 5704 5699 5705 5694 5679 5680 5675 5672 5670 5663 5660 5659 5658 5648 5654 5650 5642 5631 5631 5624 5605 5604 5601 5585 5581 5578 5575 5571 5576
5647 5651 5658 5674 5675 5688 5689 5690 5689 5671 5670 5697 5708 5700 5699 5702 5702 5701 5696 5696 5693 5678 5678 5673 5678 5669 5662 5664 5665 5664 5660 5663 5645 5632 5607 5618 5604 5594 5584 5576 5578 5575 5565 5561 5565
5640 5642 5646 5660 5671 5678 5681 5678 5664 5663 5710 5692 5696 5699 5699 5696 5694 5691 5687 5680 5669 5658 5664 5677 5669 5671 5667 5657 5665 5656 5642 5614 5609 5605 5604 5628 5603 5586 5594 5588 5575 5569 5562 5560 5564
5628 5633 5644 5657 5668 5668 5668 5661 5652 5707 5704 5712 5702 5694 5687 5693 5688 5688 5684 5676 5676 5668 5658 5656 5648 5663 5664 5654 5643 5644 5638 5597 5579 5586 5592 5622 5593 5597 5606 5593 5583 5572 5566 5565 5571
5617 5626 5637 5656 5657 5658 5651 5643 5681 5698 5711 5695 5689 5681 5682 5683 5678 5680 5682 5678 5670 5667 5648 5651 5653 5662 5659 5657 5653 5644 5624 5627 5602 5606 5592 5608 5608 5609 5609 5601 5590 5576 5572 5570 5569
5607 5620 5641 5649 5648 5646 5638 5653 5684 5705 5705 5700 5684 5690 5684 5678 5670 5675 5675 5676 5666 5666 5665 5656 5637 5665 5659 5654 5652 5647 5645 5618 5612 5574 5591 5620 5610 5595 5599 5597 5593 5578 5571 5571 5571
5591 5606 5640 5643 5632 5631 5634 5661 5683 5697 5698 5690 5689 5688 5689 5682 5678 5678 5675 5666 5669 5662 5661 5657 5648 5650 5656 5647 5644 5639 5639 5636 5626 5617 5596 5596 5594 5615 5603 5600 5590 5584 5573 5568 5572
5586 5591 5618 5627 5609 5635 5643 5667 5681 5684 5686 5685 5684 5692 5685 5683 5672 5673 5672 5669 5669 5665 5655 5649 5641 5638 5652 5654 5651 5644 5637 5635 5612 5607 5608 5610 5597 5621 5612 5605 5596 5586 5576 5576 5573
5577 5590 5600 5609 5610 5628 5652 5661 5669 5673 5672 5673 5672 5683 5686 5675 5661 5669 5667 5658 5659 5657 5650 5649 5639 5631 5634 5639 5643 5636 5638 5633 5629 5621 5606 5599 5601 5625 5617 5606 5603 5590 5581 5581 5581
5565 5562 5577 5586 5614 5628 5637 5655 5653 5670 5669 5674 5674 5675 5667 5665 5668 5658 5655 5649 5650 5653 5645 5643 5639 5636 5629 5639 5647 5636 5640 5636 5625 5608 5618 5615 5619 5621 5619 5609 5602 5594 5586 5583 5584
5540 5572 5590 5582 5596 5608 5626 5646 5645 5646 5660 5666 5660 5664 5663 5653 5652 5649 5653 5639 5642 5641 5641 5639 5633 5644 5646 5649 5645 5641 5636 5633 5623 5624 5614 5626 5622 5630 5624 5616 5606 5602 5596 5592 5589
5536 5555 5578 5590 5598 5597 5609 5634 5650 5653 5650 5653 5657 5659 5661 5655 5656 5646 5650 5643 5644 5633 5636 5638 5629 5637 5635 5650 5651 5639 5641 5638 5631 5630 5629 5627 5623 5636 5628 5621 5612 5606 5601 5595 5593
5523 5542 5559 5577 5585 5591 5611 5627 5641 5650 5649 5659 5660 5653 5650 5657 5662 5664 5657 5655 5650 5637 5632 5633 5628 5629 5629 5649 5645 5633 5646 5644 5639 5640 5635 5620 5628 5632 5625 5620 5615 5610 5606 5598 5593